Regional Weather Roundup
Issued by NWS

Home | Current Version | Previous Version | Text Only | Print | Product List | Glossary On
Versions: 1 2 3 4 5 6 7 8 9 10 11 12 13 14 15 16 17 18 19 20 21 22 23 24 25 26 27 28 29 30 31 32 33 34 35 36 37 38 39 40 41 42 43 44 45 46 47 48 49 50
000
ASUS43 KTOP 041108
RWRKS

WEATHER ROUNDUP FOR KANSAS
NATIONAL WEATHER SERVICE GOODLAND KS
600 AM CDT SAT JUL 04 2015

NOTE:  "FAIR" INDICATES FEW OR NO CLOUDS BELOW 12,000 FEET WITH NO
SIGNIFICANT WEATHER AND/OR OBSTRUCTIONS TO VISIBILITY.

KSZ001>006-013>018-027>032-041>047-041200-
NORTHWEST KANSAS

CITY           SKY/WX    TMP DP  RH WIND       PRES   REMARKS
GOODLAND       CLEAR     63  59  87 S10       30.00F
HAYS           PTCLDY    63  55  77 CALM      30.01R
HILL CITY      PTCLDY    63  60  90 E5        30.00S
RUSSELL        PTCLDY    63  62  97 SE8       29.99R
$$

KSZ061>065-074>080-084>089-041200-
SOUTHWEST KANSAS

CITY           SKY/WX    TMP DP  RH WIND       PRES   REMARKS
DODGE CITY     CLEAR     64  60  87 SE9       30.02S
ELKHART          N/A     62  57  83 SE7         N/A
GARDEN CITY    PTCLDY    63  61  93 S5        30.01R
GREAT BEND     CLOUDY    66  61  82 S6        30.02R
LIBERAL        PTCLDY    68  61  77 E7        30.05S
PRATT          CLEAR     64  61  88 CALM      30.02S
$$

KSZ066>073-081>083-090>101-041200-
SOUTHEAST KANSAS

CITY           SKY/WX    TMP DP  RH WIND       PRES   REMARKS
CHANUTE        PTCLDY    66  62  87 CALM      29.98R
COFFEYVILLE    MOCLDY    68  66  93 NE3       29.97R
HUTCHINSON     CLEAR     64  60  87 CALM      30.00S
MEDICINE LODGE   N/A     66  63  90 E8        29.99S
NEWTON         CLEAR     63  55  77 SE5       30.02F
PARSONS        PTCLDY    67  65  93 CALM      29.98R
WICHITA INTL   PTCLDY    67  62  84 CALM      29.99R
WICHITA JABRA  CLEAR     62  60  93 NE5       29.99S
WICHITA MCCONL CLEAR     67  62  84 E6        29.99S
WINFIELD       CLEAR     63  61  93 NE3       29.99S
$$

KSZ007>012-019>026-033>040-048>060-102>105-041200-
NORTHEAST KANSAS

CITY           SKY/WX    TMP DP  RH WIND       PRES   REMARKS
CONCORDIA      CLEAR     58  55  90 SE3       30.00S
EMPORIA        CLEAR     59  58  96 CALM      29.98F
LAWRENCE       CLEAR     58  57  97 N3        30.00R FOG
MANHATTAN      CLEAR     58  57  97 CALM      29.99S FOG
MARYSVILLE     CLEAR     57  57 100 CALM      29.99S
OLATHE IND     CLEAR     62  58  86 CALM      30.00R
OLATHE EXE     CLEAR     62  58  86 CALM      29.99R
SALINA         CLEAR     65  58  78 CALM      30.00R
TOPEKA BILLARD CLEAR     60  59  96 CALM      29.99S FOG
TOPEKA FORBES  CLEAR     61  57  87 CALM      29.99S
$$



USA.gov is the U.S. government's official web portal to all federal, state and local government web resources and services.